Time,TemperatureF,DewpointF,PressureIn,WindDirection,WindDirectionDegrees,WindSpeedMPH,WindSpeedGustMPH,Humidity,HourlyPrecipIn,Conditions,Clouds,dailyrainin,SolarRadiationWatts/m^2,SoftwareType,DateUTC
2013-10-19 00:11:00,38.0,31.0,-100.00,North,351,4.0,5.0,75,0.00,,,0.00,0.000000,,2013-10-19 07:11:00,
2013-10-19 00:21:00,38.0,31.0,-100.00,North,351,4.0,5.0,75,0.00,,,0.00,0.000000,,2013-10-19 07:21:00,
2013-10-19 00:32:00,38.0,31.0,-100.00,North,351,4.0,5.0,75,0.00,,,0.00,0.000000,,2013-10-19 07:32:00,
2013-10-19 00:42:00,38.0,31.0,-100.00,North,351,4.0,5.0,75,0.00,,,0.00,0.000000,,2013-10-19 07:42:00,
2013-10-19 01:11:00,35.0,29.0,-100.00,North,351,4.0,6.0,79,0.00,,,0.00,0.000000,,2013-10-19 08:11:00,
2013-10-19 01:22:00,35.0,29.0,-100.00,North,351,4.0,6.0,79,0.00,,,0.00,0.000000,,2013-10-19 08:22:00,
2013-10-19 01:32:00,35.0,29.0,-100.00,North,351,4.0,6.0,79,0.00,,,0.00,0.000000,,2013-10-19 08:32:00,
2013-10-19 01:42:00,35.0,29.0,-100.00,North,351,4.0,6.0,79,0.00,,,0.00,0.000000,,2013-10-19 08:42:00,
2013-10-19 02:21:00,39.0,32.0,-100.00,NNW,344,3.0,5.0,77,0.00,,,0.00,0.000000,,2013-10-19 09:21:00,
2013-10-19 02:33:00,39.0,32.0,-100.00,NNW,344,3.0,5.0,77,0.00,,,0.00,0.000000,,2013-10-19 09:33:00,
2013-10-19 02:43:00,39.0,32.0,-100.00,NNW,344,3.0,5.0,77,0.00,,,0.00,0.000000,,2013-10-19 09:43:00,
2013-10-19 03:13:00,36.0,31.0,-100.00,NNW,332,4.0,7.0,82,0.00,,,0.00,0.000000,,2013-10-19 10:13:00,
2013-10-19 03:23:00,36.0,31.0,-100.00,NNW,332,4.0,7.0,82,0.00,,,0.00,0.000000,,2013-10-19 10:23:00,
2013-10-19 03:32:00,36.0,31.0,-100.00,NNW,332,4.0,7.0,82,0.00,,,0.00,0.000000,,2013-10-19 10:32:00,
2013-10-19 03:42:00,36.0,31.0,-100.00,NNW,332,4.0,7.0,82,0.00,,,0.00,0.000000,,2013-10-19 10:42:00,
2013-10-19 04:12:00,34.0,30.0,-100.00,NNW,339,5.0,7.0,84,0.00,,,0.00,0.000000,,2013-10-19 11:12:00,
2013-10-19 04:22:00,34.0,30.0,-100.00,NNW,339,5.0,7.0,84,0.00,,,0.00,0.000000,,2013-10-19 11:22:00,
2013-10-19 04:33:00,34.0,30.0,-100.00,NNW,339,5.0,7.0,84,0.00,,,0.00,0.000000,,2013-10-19 11:33:00,
2013-10-19 04:42:00,34.0,30.0,-100.00,NNW,339,5.0,7.0,84,0.00,,,0.00,0.000000,,2013-10-19 11:42:00,
2013-10-19 05:11:00,36.0,32.0,-100.00,North,0,4.0,6.0,85,0.00,,,0.00,0.000000,,2013-10-19 12:11:00,
2013-10-19 05:21:00,36.0,32.0,-100.00,North,0,4.0,6.0,85,0.00,,,0.00,0.000000,,2013-10-19 12:21:00,
2013-10-19 05:32:00,36.0,32.0,-100.00,North,0,4.0,6.0,85,0.00,,,0.00,0.000000,,2013-10-19 12:32:00,
2013-10-19 05:42:00,36.0,32.0,-100.00,North,0,4.0,6.0,85,0.00,,,0.00,0.000000,,2013-10-19 12:42:00,
2013-10-19 06:12:00,32.0,29.0,-100.00,North,358,5.0,7.0,87,0.00,,,0.00,0.000000,,2013-10-19 13:12:00,
2013-10-19 06:22:00,32.0,29.0,-100.00,North,358,5.0,7.0,87,0.00,,,0.00,0.000000,,2013-10-19 13:22:00,
2013-10-19 06:32:00,32.0,29.0,-100.00,North,358,5.0,7.0,87,0.00,,,0.00,0.000000,,2013-10-19 13:32:00,
2013-10-19 06:42:00,32.0,29.0,-100.00,North,358,5.0,7.0,87,0.00,,,0.00,0.000000,,2013-10-19 13:42:00,
2013-10-19 07:11:00,33.0,30.0,-100.00,North,6,5.0,7.0,89,0.00,,,0.00,0.000000,,2013-10-19 14:11:00,
2013-10-19 07:21:00,33.0,30.0,-100.00,North,6,5.0,7.0,89,0.00,,,0.00,0.000000,,2013-10-19 14:21:00,
2013-10-19 07:32:00,33.0,30.0,-100.00,North,6,5.0,7.0,89,0.00,,,0.00,0.000000,,2013-10-19 14:32:00,
2013-10-19 07:42:00,33.0,30.0,-100.00,North,6,5.0,7.0,89,0.00,,,0.00,0.000000,,2013-10-19 14:42:00,
2013-10-19 08:11:00,32.0,29.0,-100.00,North,4,5.0,8.0,89,0.00,,,0.00,0.000000,,2013-10-19 15:11:00,
2013-10-19 08:22:00,32.0,29.0,-100.00,North,4,5.0,8.0,89,0.00,,,0.00,0.000000,,2013-10-19 15:22:00,
2013-10-19 08:34:00,32.0,29.0,-100.00,North,4,5.0,8.0,89,0.00,,,0.00,0.000000,,2013-10-19 15:34:00,
2013-10-19 08:44:00,32.0,29.0,-100.00,North,4,5.0,8.0,89,0.00,,,0.00,0.000000,,2013-10-19 15:44:00,
2013-10-19 09:14:00,37.0,32.0,-100.00,North,359,2.0,9.0,83,0.00,,,0.00,19.000000,,2013-10-19 16:14:00,
2013-10-19 09:24:00,37.0,32.0,-100.00,North,359,2.0,9.0,83,0.00,,,0.00,19.000000,,2013-10-19 16:24:00,
2013-10-19 09:33:00,37.0,32.0,-100.00,North,359,2.0,9.0,83,0.00,,,0.00,19.000000,,2013-10-19 16:33:00,
2013-10-19 09:42:00,37.0,32.0,-100.00,North,359,2.0,9.0,83,0.00,,,0.00,19.000000,,2013-10-19 16:42:00,
2013-10-19 12:22:00,57.0,37.0,-100.00,NNE,32,4.0,8.0,47,-99.99,,,0.00,380.000000,,2013-10-19 19:22:00,
2013-10-19 12:32:00,57.0,37.0,-100.00,NNE,32,4.0,8.0,47,-99.99,,,0.00,380.000000,,2013-10-19 19:32:00,
2013-10-19 12:42:00,57.0,37.0,-100.00,NNE,32,4.0,8.0,47,-99.99,,,0.00,380.000000,,2013-10-19 19:42:00,
2013-10-19 15:43:00,66.0,38.0,-100.00,East,86,1.0,6.0,35,-99.99,,,0.00,361.000000,,2013-10-19 22:43:00,
2013-10-19 18:11:00,63.0,36.0,-100.00,SSE,158,0.0,2.0,36,-99.99,,,0.00,1.000000,,2013-10-20 01:11:00,
2013-10-19 18:22:00,63.0,36.0,-100.00,SSE,158,0.0,2.0,36,-99.99,,,0.00,1.000000,,2013-10-20 01:22:00,
2013-10-19 18:32:00,63.0,36.0,-100.00,SSE,158,0.0,2.0,36,-99.99,,,0.00,1.000000,,2013-10-20 01:32:00,
2013-10-19 18:42:00,63.0,36.0,-100.00,SSE,158,0.0,2.0,36,-99.99,,,0.00,1.000000,,2013-10-20 01:42:00,
2013-10-19 19:11:00,51.0,33.0,-100.00,West,262,4.0,7.0,50,0.00,,,0.00,0.000000,,2013-10-20 02:11:00,
2013-10-19 19:22:00,51.0,33.0,-100.00,West,262,4.0,7.0,50,0.00,,,0.00,0.000000,,2013-10-20 02:22:00,
2013-10-19 19:32:00,51.0,33.0,-100.00,West,262,4.0,7.0,50,0.00,,,0.00,0.000000,,2013-10-20 02:32:00,
2013-10-19 19:42:00,51.0,33.0,-100.00,West,262,4.0,7.0,50,0.00,,,0.00,0.000000,,2013-10-20 02:42:00,
2013-10-19 20:12:00,47.0,33.0,-100.00,North,6,5.0,7.0,58,0.00,,,0.00,0.000000,,2013-10-20 03:12:00,
2013-10-19 20:21:00,47.0,33.0,-100.00,North,6,5.0,7.0,58,0.00,,,0.00,0.000000,,2013-10-20 03:21:00,
2013-10-19 20:34:00,47.0,33.0,-100.00,North,6,5.0,7.0,58,0.00,,,0.00,0.000000,,2013-10-20 03:34:00,
2013-10-19 20:44:00,47.0,33.0,-100.00,North,6,5.0,7.0,58,0.00,,,0.00,0.000000,,2013-10-20 03:44:00,
2013-10-19 21:02:00,-999.0,-99.9,-100.00,NW,313,5.0,8.0,-999,-99.99,,,-99.99,0.000000,,2013-10-20 04:02:00,
2013-10-19 21:14:00,45.0,33.0,-100.00,NW,313,5.0,8.0,62,0.00,,,0.00,0.000000,,2013-10-20 04:14:00,
2013-10-19 21:24:00,45.0,33.0,-100.00,NW,313,5.0,8.0,62,0.00,,,0.00,0.000000,,2013-10-20 04:24:00,
2013-10-19 21:34:00,45.0,33.0,-100.00,NW,313,5.0,8.0,62,0.00,,,0.00,0.000000,,2013-10-20 04:34:00,
2013-10-19 21:44:00,45.0,33.0,-100.00,NW,313,5.0,8.0,62,0.00,,,0.00,0.000000,,2013-10-20 04:44:00,
2013-10-19 22:13:00,45.0,33.0,-100.00,NW,326,5.0,8.0,62,0.00,,,-99.99,0.000000,,2013-10-20 05:13:00,
2013-10-19 22:23:00,45.0,33.0,-100.00,NW,326,5.0,8.0,62,0.00,,,-99.99,0.000000,,2013-10-20 05:23:00,
2013-10-19 22:34:00,45.0,33.0,-100.00,NW,326,5.0,8.0,62,0.00,,,-99.99,0.000000,,2013-10-20 05:34:00,
2013-10-19 22:43:00,45.0,33.0,-100.00,NW,326,5.0,8.0,62,0.00,,,-99.99,0.000000,,2013-10-20 05:43:00,
2013-10-19 23:12:00,42.0,32.0,-100.00,NW,325,6.0,8.0,67,0.00,,,0.00,0.000000,,2013-10-20 06:12:00,
2013-10-19 23:22:00,42.0,32.0,-100.00,NW,325,6.0,8.0,67,0.00,,,0.00,0.000000,,2013-10-20 06:22:00,
2013-10-19 23:32:00,42.0,32.0,-100.00,NW,325,6.0,8.0,67,0.00,,,0.00,0.000000,,2013-10-20 06:32:00,
2013-10-19 23:42:00,42.0,32.0,-100.00,NW,325,6.0,8.0,67,0.00,,,0.00,0.000000,,2013-10-20 06:42:00,